Petersburg, AK

10:23 PM AKDT on October 18, 2017 (GMT -0800)
Johnson Petersburg

Weather History for PAPG - October, 2012

Change the Weather History Date:

Tuesday, October 16, 2012

  Actual Average Record
Temperature  
Mean Temperature 44 °F -  
Max Temperature 46 °F 46 °F 66 °F (2015)
Min Temperature 42 °F 38 °F 19 °F (1992)
Degree Days  
Heating Degree Days 21    
Moisture  
Dew Point 37 °F    
Average Humidity 77    
Maximum Humidity 93    
Minimum Humidity 70    
Precipitation  
Precipitation 0.00 in - - ()
Sea Level Pressure  
Sea Level Pressure 29.61 in    
Wind  
Wind Speed 5 mph (South)    
Max Wind Speed 14 mph    
Max Gust Speed 20 mph    
Visibility 10 miles    
Events Rain    
Averages and records for this station are not official NWS values.
T = Trace of Precipitation, MM = Missing Value Source: NWS Daily Summary

Daily Weather History Graph

Daily Weather History Graph

Search for Another Location

Airport or City:

Trip Planner

Search our weather history database for the weather conditions in past years. The results will help you decide how hot, cold, wet, or windy it might be!

Date:

Astronomy

Oct. 16, 2012 Rise Set
Actual Time 7:28 AM AKDT 5:45 PM AKDT
Civil Twilight 6:49 AM AKDT 6:23 PM AKDT
Nautical Twilight 6:05 AM AKDT 7:07 PM AKDT
Astronomical Twilight 5:21 AM AKDT 7:51 PM AKDT
Moon 9:27 AM AKDT (10/16) 6:04 PM AKDT (10/16)
Length of Visible Light 11h 34m
Length of Day
10h 17m
Waxing Crescent, 3% of the Moon is Illuminated
Oct 16
Waxing Crescent
Oct 21
First Quarter
Oct 29
Full
Nov 6
Last Quarter
Nov 13
New

Hourly Weather History & Observations

Time (AKDT) Temp. Windchill Dew Point Humidity Pressure Visibility Wind Dir Wind Speed Gust Speed Precip Events Conditions
1:16 AM 42.8 °F - 41.0 °F 93% 29.15 in 10.0 mi Calm Calm - N/A   Unknown
1:36 AM 42.8 °F - 41.0 °F 93% 29.17 in 10.0 mi Calm Calm - N/A   Overcast
1:56 AM 42.8 °F - 39.2 °F 87% 29.18 in 10.0 mi Calm Calm - N/A   Overcast
2:16 AM 42.8 °F - 39.2 °F 87% 29.20 in 10.0 mi Calm Calm - N/A   Partly Cloudy
2:36 AM 42.8 °F - 39.2 °F 87% 29.21 in 10.0 mi Calm Calm - N/A   Scattered Clouds
3:56 AM - - - N/A% 29.25 in - Calm Calm - N/A   Unknown
4:16 AM 44.6 °F 41.4 °F 39.2 °F 81% 29.26 in 10.0 mi South 5.8 mph - N/A   Overcast
4:36 AM 42.8 °F - 41.0 °F 93% 29.28 in 10.0 mi Calm Calm - N/A   Overcast
4:56 AM 44.6 °F 38.8 °F 39.2 °F 81% 29.29 in 10.0 mi South 11.5 mph - N/A   Mostly Cloudy
5:16 AM 44.6 °F 40.2 °F 39.2 °F 81% 29.30 in 10.0 mi SSW 8.1 mph - N/A   Overcast
5:36 AM 44.6 °F 39.7 °F 37.4 °F 76% 29.30 in 10.0 mi SSW 9.2 mph - N/A   Overcast
5:56 AM 44.6 °F 39.7 °F 37.4 °F 76% 29.32 in 10.0 mi South 9.2 mph 17.3 mph N/A   Overcast
6:16 AM 44.6 °F 38.4 °F 37.4 °F 76% 29.33 in 10.0 mi South 12.7 mph - N/A   Overcast
6:36 AM 44.6 °F 39.2 °F 37.4 °F 76% 29.35 in 10.0 mi SSW 10.4 mph - N/A   Overcast
6:56 AM 44.6 °F 41.4 °F 37.4 °F 76% 29.36 in 10.0 mi South 5.8 mph - N/A   Overcast
7:16 AM 44.6 °F 39.7 °F 37.4 °F 76% 29.37 in 10.0 mi South 9.2 mph - N/A   Overcast
7:36 AM 44.6 °F 40.2 °F 37.4 °F 76% 29.38 in 10.0 mi South 8.1 mph - N/A   Overcast
7:56 AM 44.6 °F 38.8 °F 35.6 °F 71% 29.40 in 10.0 mi SSW 11.5 mph 17.3 mph N/A   Mostly Cloudy
8:16 AM 44.6 °F 39.7 °F 37.4 °F 76% 29.42 in 10.0 mi SSE 9.2 mph 18.4 mph N/A   Mostly Cloudy
8:36 AM 44.6 °F 38.1 °F 35.6 °F 71% 29.44 in 10.0 mi South 13.8 mph - N/A   Mostly Cloudy
8:56 AM 44.6 °F 38.8 °F 35.6 °F 71% 29.45 in 10.0 mi South 11.5 mph 17.3 mph N/A   Mostly Cloudy
9:49 AM 42.8 °F 39.3 °F 39.2 °F 87% 29.50 in 10.0 mi South 5.8 mph - N/A Rain Rain Showers
10:36 AM - - - N/A% - 10.0 mi North - - N/A   Overcast
10:56 AM 44.6 °F 38.8 °F 37.4 °F 76% 29.54 in 10.0 mi South 11.5 mph 16.1 mph N/A   Mostly Cloudy
11:16 AM 44.6 °F 40.2 °F 35.6 °F 71% 29.56 in 10.0 mi SSE 8.1 mph - N/A   Mostly Cloudy
11:36 AM 46.4 °F 41.1 °F 37.4 °F 71% 29.58 in 10.0 mi SE 11.5 mph - N/A   Mostly Cloudy
11:56 AM 44.6 °F 40.7 °F 35.6 °F 71% 29.59 in 10.0 mi South 6.9 mph - N/A   Overcast
12:16 PM 44.6 °F 40.2 °F 37.4 °F 76% 29.61 in 10.0 mi SE 8.1 mph - N/A   Overcast
12:36 PM 44.6 °F 41.4 °F 37.4 °F 76% 29.62 in 10.0 mi WSW 5.8 mph - N/A   Overcast
12:56 PM 44.6 °F 39.7 °F 37.4 °F 76% 29.63 in 10.0 mi SE 9.2 mph - N/A   Overcast
1:16 PM 44.6 °F 39.7 °F 37.4 °F 76% 29.64 in 10.0 mi SSE 9.2 mph - N/A   Overcast
1:56 PM 44.6 °F 41.4 °F 35.6 °F 71% 29.66 in 10.0 mi ESE 5.8 mph - N/A   Mostly Cloudy
2:16 PM 44.6 °F 43.1 °F 35.6 °F 71% 29.68 in 10.0 mi SSE 3.5 mph - N/A   Mostly Cloudy
2:36 PM 44.6 °F 40.2 °F 37.4 °F 76% 29.69 in 10.0 mi South 8.1 mph - N/A   Mostly Cloudy
2:56 PM 44.6 °F 39.7 °F 37.4 °F 76% 29.70 in 10.0 mi South 9.2 mph - N/A   Overcast
3:16 PM 44.6 °F 39.7 °F 35.6 °F 71% 29.71 in 10.0 mi South 9.2 mph - N/A   Overcast
3:36 PM 44.6 °F 39.7 °F 35.6 °F 71% 29.71 in 10.0 mi SW 9.2 mph - N/A   Overcast
3:56 PM 44.6 °F 40.7 °F 37.4 °F 76% 29.72 in 10.0 mi SSW 6.9 mph - N/A   Overcast
4:16 PM 44.6 °F 41.4 °F 35.6 °F 71% 29.73 in 10.0 mi SSW 5.8 mph - N/A   Overcast
4:36 PM 44.6 °F 41.4 °F 35.6 °F 71% 29.74 in 10.0 mi SW 5.8 mph - N/A   Overcast
4:56 PM 44.6 °F - 35.6 °F 71% 29.75 in 7.0 mi Calm Calm - N/A   Overcast
5:16 PM 42.8 °F 41.1 °F 37.4 °F 81% 29.76 in 7.0 mi SSE 3.5 mph - N/A   Overcast
5:36 PM 42.8 °F - 37.4 °F 81% 29.77 in 7.0 mi Calm Calm - N/A   Overcast
5:56 PM 42.8 °F 41.1 °F 37.4 °F 81% 29.78 in 7.0 mi NNW 3.5 mph - N/A   Overcast
6:16 PM 42.8 °F 39.3 °F 37.4 °F 81% 29.79 in 7.0 mi SW 5.8 mph - N/A   Overcast
6:36 PM 42.8 °F 40.1 °F 37.4 °F 81% 29.80 in 7.0 mi South 4.6 mph - N/A   Overcast
6:56 PM 42.8 °F 41.1 °F 37.4 °F 81% 29.81 in 10.0 mi South 3.5 mph - N/A   Overcast
7:16 PM 42.8 °F 41.1 °F 39.2 °F 87% 29.82 in 10.0 mi South 3.5 mph - N/A   Overcast
7:36 PM 42.8 °F 37.0 °F 37.4 °F 81% 29.83 in 10.0 mi SW 10.4 mph - N/A   Overcast
7:56 PM 42.8 °F 36.6 °F 37.4 °F 81% 29.84 in 7.0 mi SSW 11.5 mph 17.3 mph N/A   Overcast
8:16 PM 42.8 °F 37.0 °F 37.4 °F 81% 29.85 in 7.0 mi SSW 10.4 mph - N/A   Overcast
8:36 PM 44.6 °F 40.7 °F 37.4 °F 76% 29.87 in 7.0 mi SSW 6.9 mph - N/A   Overcast
8:56 PM 44.6 °F 39.7 °F 35.6 °F 71% 29.87 in 10.0 mi South 9.2 mph - N/A   Mostly Cloudy
9:16 PM 44.6 °F 39.2 °F 35.6 °F 71% 29.89 in 10.0 mi South 10.4 mph - N/A   Mostly Cloudy
9:36 PM 44.6 °F 39.7 °F 35.6 °F 71% 29.90 in 10.0 mi South 9.2 mph - N/A   Mostly Cloudy
9:56 PM 44.6 °F 38.4 °F 35.6 °F 71% 29.91 in 10.0 mi South 12.7 mph 19.6 mph N/A   Overcast
10:16 PM 42.8 °F 38.0 °F 35.6 °F 76% 29.92 in 10.0 mi South 8.1 mph 16.1 mph N/A   Mostly Cloudy
10:36 PM 42.8 °F 37.5 °F 35.6 °F 76% 29.93 in 10.0 mi South 9.2 mph 18.4 mph N/A   Overcast
10:56 PM 42.8 °F 39.3 °F 35.6 °F 76% 29.94 in 10.0 mi SSW 5.8 mph - N/A   Overcast
11:16 PM 42.8 °F 38.6 °F 35.6 °F 76% 29.95 in 10.0 mi South 6.9 mph - N/A   Overcast
11:36 PM 42.8 °F - 35.6 °F 76% 29.96 in 10.0 mi Calm Calm - N/A   Overcast
11:56 PM 42.8 °F 36.6 °F 33.8 °F 70% 29.96 in 10.0 mi South 11.5 mph - N/A   Overcast